Theta_e
344 350 354 356 357 357 356 356 355 354 354 353 353 353 353 353 352 352 352 352 352 352 353 353 352 353 352 352 352 351 351 350 348 348 348 349 349 349 350 351 351 350 350 351 351 351 351 350 349 348 348 348 348 348 348 347 347 347 347 347 347 347 346 347 347 347 347 347 346 347 347 347 346 347 346 345 345 345 345 345 345 340 341 343 343
340 351 355 355 357 357 356 355 354 354 354 353 352 353 353 353 352 352 352 352 352 352 351 351 351 351 351 350 350 350 349 348 347 347 346 346 347 348 349 350 351 351 350 350 350 351 350 349 348 348 347 348 348 347 347 347 347 347 347 347 347 346 346 346 346 346 347 347 347 347 346 347 347 347 346 345 345 345 344 345 345 342 343 344 343
344 351 354 355 357 357 356 355 354 355 354 353 353 352 353 352 352 352 352 352 352 351 351 350 350 350 350 349 349 349 348 347 345 345 345 345 346 349 351 351 351 351 351 350 350 349 348 348 348 348 347 347 347 348 347 346 347 347 347 346 346 346 346 346 346 346 346 347 348 348 348 347 347 347 346 346 345 345 345 346 346 344 344 344 344
348 352 354 357 357 357 356 356 355 355 354 353 352 352 352 352 352 352 352 352 351 351 350 349 349 349 349 348 348 347 347 345 345 345 346 346 351 352 352 351 351 351 350 350 349 348 347 347 347 348 348 348 348 348 347 348 347 347 347 347 346 346 346 346 345 348 347 347 347 349 350 350 347 346 345 345 345 344 345 345 345 344 344 344 344
349 351 354 356 358 357 356 356 355 354 354 353 352 353 352 352 353 352 352 352 351 350 349 347 347 348 348 347 346 346 346 345 345 345 346 350 352 352 351 351 350 350 349 348 347 347 346 347 348 348 348 347 347 348 348 348 348 347 347 346 346 346 346 346 346 346 347 346 347 349 350 348 349 346 346 345 345 345 345 345 345 345 345 344 344
349 351 354 354 356 356 356 356 355 354 353 353 352 353 353 353 352 352 352 351 350 350 349 347 346 346 346 345 344 345 345 345 345 346 352 353 351 351 351 350 349 349 348 346 346 345 345 347 348 348 349 349 349 350 350 349 349 348 347 346 346 346 346 346 346 346 346 348 348 349 348 347 347 347 345 346 345 345 345 345 345 345 344 345 344
350 352 354 353 352 356 355 355 355 354 354 353 352 353 352 353 353 352 352 351 351 350 349 349 348 345 344 344 343 343 344 345 344 345 352 352 351 350 351 350 349 348 346 345 345 344 345 348 348 349 349 349 350 350 350 350 350 350 349 349 348 347 346 347 345 345 347 348 351 349 347 347 348 347 347 346 345 345 345 345 345 345 345 344 343
350 352 354 353 353 355 355 355 355 354 353 353 352 352 353 353 352 352 352 351 351 349 348 349 349 347 344 343 343 343 343 343 343 344 350 352 351 350 350 349 347 346 345 345 345 345 346 348 348 349 350 350 350 349 349 349 349 349 350 350 350 348 347 346 347 345 346 349 349 349 348 346 347 346 346 347 346 347 346 346 346 345 345 345 344
350 353 353 353 353 355 355 355 354 354 353 353 352 352 353 353 352 352 352 351 349 348 348 349 349 348 346 344 343 344 344 344 344 344 346 352 351 350 349 347 346 345 345 345 346 345 345 347 348 349 348 348 348 349 348 348 349 349 349 349 350 349 348 347 345 347 350 349 349 349 348 346 347 347 346 346 345 345 345 345 347 345 345 345 344
351 353 353 353 354 356 355 354 354 354 353 353 353 353 353 353 352 352 351 350 349 348 348 349 349 348 348 346 343 343 345 345 344 344 345 348 351 348 347 346 345 344 345 346 345 345 346 347 348 348 349 350 349 350 350 350 350 350 349 349 349 350 349 349 347 344 348 348 348 347 349 356 346 346 346 346 346 345 346 347 348 347 346 346 345
352 352 352 353 353 355 354 354 354 354 353 353 352 353 352 352 352 352 351 351 350 349 349 348 348 347 345 343 343 343 345 345 345 345 344 344 348 347 345 345 346 345 344 345 346 345 345 348 348 349 350 349 349 350 350 350 350 350 350 350 349 350 350 350 348 345 346 347 348 348 346 349 349 349 347 346 346 346 346 346 346 346 345 345 344
350 353 354 355 355 354 354 354 354 354 353 353 352 353 353 353 352 351 351 352 351 349 349 349 348 347 344 343 343 344 345 345 345 346 344 344 348 346 345 344 344 345 345 345 346 345 347 349 350 349 350 350 350 349 350 350 351 352 351 351 351 350 350 351 350 344 347 347 347 348 345 344 348 347 346 346 346 346 346 346 345 345 344 344 344
349 351 353 354 357 354 354 354 354 354 353 352 352 353 353 353 352 352 352 353 351 350 350 348 348 348 346 344 343 344 344 345 346 346 346 346 347 346 345 344 344 344 345 345 345 346 347 349 350 350 350 350 349 350 350 351 351 352 352 351 351 352 350 352 348 344 347 348 347 346 345 347 349 346 346 346 347 346 346 345 344 344 343 343 342
348 350 352 352 354 354 354 354 353 353 353 352 352 353 353 353 352 352 352 353 351 352 351 349 348 348 346 344 343 344 345 346 348 345 345 347 348 346 345 344 345 346 346 346 346 346 348 348 349 350 350 350 349 350 350 349 349 348 349 348 348 348 348 349 348 345 347 347 348 345 345 348 350 345 345 347 347 346 345 344 343 343 342 342 342
348 351 353 353 352 354 355 354 353 353 353 352 352 353 353 353 352 352 353 352 352 352 350 349 348 347 347 345 344 343 344 345 345 344 345 348 347 346 345 346 346 346 346 346 346 348 348 348 349 350 350 349 349 349 349 349 348 347 347 346 347 347 347 344 343 346 346 346 346 343 345 348 346 346 346 347 346 345 345 344 343 342 342 341 341
350 351 351 352 351 351 354 354 354 354 353 352 353 353 353 353 352 353 353 352 352 352 350 349 348 348 347 345 344 343 343 344 345 345 346 348 347 346 347 347 347 347 347 347 347 347 347 348 349 349 350 349 349 349 349 348 348 348 348 348 350 349 350 352 346 346 348 348 346 344 347 348 346 345 346 345 345 344 343 342 340 340 339 338 337
350 351 350 349 350 350 350 352 353 354 353 353 353 353 354 353 352 353 353 352 352 352 351 350 349 347 345 345 344 343 343 344 344 345 346 347 347 347 346 346 347 347 347 346 347 346 346 348 349 349 349 349 349 349 349 349 348 348 348 348 348 348 349 351 344 345 346 346 343 343 346 348 346 345 346 345 344 344 343 341 340 337 335 334 333
347 347 345 346 349 349 348 349 352 354 353 353 353 354 353 353 353 353 353 352 352 351 350 350 349 347 345 344 344 343 343 344 344 345 349 347 346 346 345 345 346 347 346 347 347 346 346 347 348 349 349 349 349 349 349 349 348 348 348 348 347 347 350 350 346 346 348 346 343 347 346 346 345 345 344 344 343 343 341 339 337 335 333 332 331
343 343 344 345 346 348 348 349 351 351 352 352 352 356 354 353 353 352 352 352 352 351 350 350 349 347 345 344 343 343 342 344 344 344 346 348 346 345 345 345 344 346 346 347 347 346 345 346 348 349 349 349 349 348 348 348 348 348 348 348 346 349 347 350 345 346 346 347 346 345 346 345 344 344 344 343 343 340 339 336 335 333 332 331 330
343 344 344 346 346 346 347 348 349 351 352 352 351 354 354 353 353 352 352 352 351 351 350 349 349 347 345 343 342 342 343 345 344 344 344 345 346 345 345 344 344 346 346 347 347 346 345 345 347 348 349 348 348 347 348 348 348 347 347 346 347 347 349 344 347 348 347 346 346 347 345 343 343 343 343 341 340 339 336 334 332 332 331 330 330
344 344 345 346 347 349 349 347 349 350 351 351 352 351 352 353 353 353 352 351 351 351 350 349 348 347 346 343 342 343 344 345 345 343 344 346 347 345 344 344 344 345 346 346 347 346 345 345 345 347 347 347 347 347 347 347 346 346 345 346 346 347 345 348 349 348 347 348 344 346 343 343 343 342 341 340 339 336 334 332 332 332 331 329 329
341 342 345 346 346 347 348 348 350 351 350 351 350 351 353 352 353 353 353 353 351 351 352 352 349 349 344 343 343 342 341 341 342 342 345 345 346 345 345 344 344 344 345 345 346 346 345 344 344 347 347 347 347 348 349 346 344 344 345 344 349 345 349 350 348 345 344 345 344 344 342 342 341 341 340 338 337 334 333 331 331 331 330 328 328
340 340 342 347 348 347 347 347 348 349 350 351 350 351 352 353 352 353 351 351 352 353 351 352 350 346 342 341 342 342 340 341 343 341 343 344 345 345 344 344 344 345 345 345 345 346 345 345 344 346 348 346 348 344 345 345 347 343 344 347 347 347 349 350 348 346 343 343 345 343 342 341 340 340 338 336 334 333 332 330 329 329 328 328 328
340 340 340 345 347 347 347 347 348 349 348 348 349 350 351 351 350 351 352 353 353 351 351 350 348 346 343 343 342 341 341 342 340 342 342 343 346 344 344 344 344 344 344 346 345 345 344 343 343 344 348 348 343 342 342 343 345 348 347 345 345 347 349 348 345 345 345 343 343 342 342 341 339 338 337 335 334 332 331 330 330 329 328 328 327
341 342 342 344 346 347 348 348 348 348 348 348 348 348 351 348 349 350 351 351 352 351 351 350 349 347 343 343 341 341 341 340 342 342 340 343 344 345 346 343 344 344 344 345 344 344 345 338 338 342 342 341 340 342 343 342 345 344 345 345 345 346 345 346 344 343 342 340 342 341 340 338 337 337 336 333 331 331 331 330 329 329 327 326 326
344 341 343 345 345 346 347 347 347 349 347 347 347 348 351 348 348 348 351 351 351 350 351 349 348 346 343 343 343 342 342 340 340 341 340 340 341 342 343 342 341 341 345 343 341 342 343 340 338 340 340 341 341 343 343 343 344 345 344 344 344 345 345 343 343 341 341 339 341 338 337 337 335 335 334 332 331 330 330 329 328 328 327 326 325
341 343 345 346 346 347 348 347 346 347 348 346 347 347 348 350 348 349 350 348 351 350 349 347 346 344 343 343 342 340 340 340 339 340 339 339 339 339 342 342 342 341 342 341 341 342 341 339 339 340 339 341 340 342 341 343 343 343 343 340 343 343 344 342 341 340 340 338 337 336 335 335 333 332 331 331 330 329 329 329 328 327 326 325 325
342 344 345 345 345 346 347 347 346 347 348 347 346 345 347 348 349 349 350 347 348 349 347 346 345 340 343 344 343 342 340 340 341 339 339 341 339 340 341 340 341 341 341 342 341 341 340 340 341 339 337 340 339 341 343 342 342 342 339 340 341 342 341 339 339 338 337 337 336 335 334 332 331 330 330 330 329 329 329 328 327 327 326 325 325
342 344 345 345 346 346 347 346 346 346 347 347 345 345 347 348 349 348 348 350 349 349 347 347 344 341 343 343 344 342 340 343 341 341 341 341 340 340 338 339 340 342 342 341 342 340 340 339 341 338 338 339 339 341 341 341 343 342 340 339 338 338 338 337 336 334 334 335 335 334 333 331 330 330 329 329 329 329 328 328 327 326 325 324 324
344 345 345 344 345 345 345 345 346 346 347 346 345 344 346 346 348 348 347 349 347 348 349 345 343 342 341 343 342 343 341 342 343 342 341 341 341 341 341 341 341 341 342 342 340 339 338 338 340 338 338 338 338 340 340 341 340 340 340 338 337 337 337 335 334 334 334 335 334 334 331 330 329 329 329 329 329 328 328 327 326 325 324 324 324
346 345 344 343 344 345 344 344 344 347 345 343 344 345 346 346 347 347 348 348 347 348 347 345 341 342 341 344 341 343 343 343 344 343 342 342 343 343 342 342 340 342 342 340 342 339 340 340 340 337 338 337 338 340 340 340 339 338 338 335 336 337 335 336 334 333 333 332 333 332 330 329 328 328 328 328 328 328 327 326 325 324 324 324 323
347 346 345 345 345 345 345 346 346 346 346 343 345 344 345 346 346 346 346 347 350 347 345 344 341 342 343 344 341 341 341 343 345 344 343 342 342 342 340 340 339 340 340 340 340 343 342 339 340 340 340 341 340 340 341 339 339 337 336 334 335 336 334 334 332 332 332 332 330 330 331 329 328 328 327 327 326 326 326 325 324 323 323 323 323
348 349 347 347 346 345 345 346 347 347 345 344 343 344 345 346 346 346 347 347 349 347 345 341 344 344 347 345 345 343 344 344 346 345 343 340 340 341 340 341 341 341 343 344 342 344 341 341 341 340 341 342 342 341 339 342 339 337 335 334 335 332 332 333 332 331 329 329 329 328 330 330 329 327 326 326 326 325 324 323 323 324 324 324 323
347 348 349 347 347 346 344 345 345 344 346 344 344 344 345 346 346 346 347 347 347 345 345 342 343 345 346 345 345 345 346 346 346 347 345 342 343 342 342 341 342 344 345 344 343 342 339 340 340 340 341 341 341 344 342 339 337 335 335 334 336 335 334 330 330 329 327 327 326 328 328 327 327 328 327 325 324 324 323 323 321 320 321 323 322
348 349 348 348 348 347 345 343 345 344 345 345 344 344 345 344 345 345 346 347 346 345 345 343 343 346 344 344 346 347 348 349 349 348 348 345 343 342 342 342 345 346 343 344 343 341 341 340 339 339 341 343 343 342 340 340 336 335 335 336 335 333 332 331 329 327 324 325 324 325 326 325 327 327 326 325 324 322 320 318 319 320 322 321 321
350 350 350 349 347 348 346 344 344 345 345 344 346 345 345 346 346 345 346 348 345 345 344 344 344 344 343 345 345 347 347 348 349 348 348 348 345 343 342 345 346 347 345 345 347 343 344 342 343 344 342 342 343 342 342 338 337 335 336 337 336 333 330 329 327 324 322 322 322 323 323 323 324 324 324 324 325 322 318 317 317 317 317 317 317
350 350 349 349 347 346 345 345 344 344 345 345 345 346 346 345 347 346 345 347 344 344 345 343 344 344 343 343 345 346 347 347 348 349 349 348 347 348 347 348 349 349 349 349 348 347 346 344 345 347 347 342 339 339 340 338 336 336 337 337 334 332 330 328 326 324 322 322 321 321 322 321 322 319 323 322 322 320 318 316 316 315 315 316 315
350 350 349 348 347 346 345 345 345 344 344 344 345 344 345 345 345 344 345 344 345 344 345 343 344 343 343 342 345 346 347 347 348 348 349 349 349 350 352 353 351 350 348 349 347 348 349 349 346 348 346 342 340 340 338 337 336 335 335 333 331 330 328 326 324 321 320 318 319 319 320 320 317 319 320 321 320 319 318 317 316 315 315 314 313
349 349 348 348 347 345 344 344 345 345 345 345 346 345 346 346 344 344 344 344 344 344 345 342 343 346 341 341 344 347 347 348 348 348 349 348 348 352 351 352 351 349 349 347 347 347 348 348 347 345 346 343 341 341 339 337 335 336 333 332 331 329 327 325 323 321 318 319 319 318 318 319 319 318 320 321 320 320 319 317 316 318 313 314 312
347 347 347 347 345 345 345 344 344 345 346 345 344 343 342 341 340 342 341 341 342 342 344 342 345 344 342 339 344 347 347 347 348 348 349 349 349 351 352 352 351 349 347 346 346 346 347 347 346 345 344 343 343 341 338 335 335 334 331 331 329 326 325 324 322 321 319 317 316 315 316 316 317 317 317 317 317 318 317 317 317 316 315 312 314
344 345 345 346 344 344 345 343 344 345 343 341 341 341 340 339 339 338 339 341 341 343 343 343 344 343 342 340 345 344 346 347 347 347 348 348 350 352 351 351 350 348 347 347 347 347 348 348 345 345 342 340 339 338 337 336 330 327 327 325 324 325 324 322 322 321 319 317 315 314 315 316 316 315 316 318 317 317 317 318 318 317 316 313 312
342 343 344 344 343 345 345 344 344 344 344 343 342 342 342 338 337 337 338 339 340 340 340 342 344 344 343 343 345 345 346 346 347 347 348 349 350 350 351 350 349 347 347 348 348 347 347 345 342 340 341 338 336 335 335 334 330 327 323 322 321 321 322 321 321 321 320 319 317 317 317 316 315 316 317 316 318 317 317 318 318 317 314 315 316
344 343 343 342 342 344 345 346 344 343 344 345 343 341 342 341 340 339 339 339 343 344 342 342 344 345 346 345 345 348 346 346 347 347 348 349 349 350 350 350 349 347 346 346 347 346 344 341 339 337 335 336 335 337 336 336 330 330 329 324 317 316 318 319 321 321 321 320 319 318 317 316 316 317 317 316 316 316 316 317 316 316 315 316 315
345 345 343 342 341 342 344 346 345 345 344 345 344 344 343 343 344 344 343 342 341 343 343 343 344 344 344 345 346 347 346 346 346 346 347 348 351 350 351 350 349 347 347 345 345 343 343 341 340 339 339 333 332 333 338 337 333 329 321 322 322 320 316 317 318 320 321 320 319 318 318 318 317 317 318 315 315 315 316 315 314 315 316 315 315
346 344 343 342 341 343 344 345 345 345 345 345 345 344 342 342 343 344 344 343 342 341 342 340 342 342 343 344 343 346 345 345 346 346 346 348 351 351 350 350 349 348 348 344 343 342 341 341 341 339 338 334 331 334 335 337 336 334 327 324 320 318 320 321 320 318 320 318 317 316 318 317 316 317 315 314 315 316 317 315 316 315 315 315 315
346 345 345 343 342 342 343 345 345 346 345 345 346 343 342 341 339 337 336 337 335 337 336 337 339 340 339 343 344 345 345 344 345 346 346 347 350 351 351 349 349 348 347 345 344 342 341 340 339 340 339 338 335 333 332 336 335 335 336 331 333 322 321 322 320 315 320 321 319 315 316 316 316 315 314 313 314 312 315 315 316 316 316 316 314
347 348 345 343 342 343 343 343 344 345 345 345 345 343 343 342 341 339 338 336 335 337 341 342 341 341 343 344 342 345 345 345 347 346 347 347 350 351 351 350 348 348 346 345 342 342 340 340 340 339 338 338 337 332 332 332 332 333 333 334 333 331 327 321 319 319 314 316 317 316 315 315 315 314 313 313 313 313 315 314 314 314 315 315 315
347 347 344 343 343 343 343 343 344 344 345 344 344 344 343 341 341 341 340 339 338 338 341 343 344 342 342 343 344 344 345 344 345 346 346 347 348 350 350 349 347 346 344 344 343 341 340 340 341 341 339 338 338 334 333 332 329 329 332 331 329 327 326 326 327 322 319 315 313 315 316 318 317 315 314 313 312 313 315 314 313 313 314 313 314
347 347 345 345 344 344 343 344 343 344 344 345 344 345 344 343 342 341 339 341 342 341 342 343 342 343 343 344 344 343 344 344 345 346 347 346 347 349 349 348 346 346 344 345 345 343 340 340 340 338 338 338 337 336 333 331 332 329 328 327 325 323 323 324 325 325 319 318 315 312 312 315 317 316 316 316 314 314 315 314 313 314 315 315 314
346 349 347 345 344 344 344 344 344 344 344 346 345 345 345 344 342 341 340 341 341 341 343 342 342 343 342 342 343 342 342 343 345 346 347 346 349 349 348 347 347 347 344 345 345 343 342 341 340 339 339 338 338 336 334 332 333 332 330 327 323 323 323 323 323 323 322 321 316 312 313 313 311 313 317 316 315 314 314 315 315 313 314 315 314
346 348 347 345 345 345 344 344 344 344 346 345 345 344 345 345 343 343 342 342 342 341 341 342 341 341 340 341 341 341 342 342 343 345 346 346 350 350 349 348 347 345 343 344 344 342 341 340 340 340 339 338 336 336 335 335 333 332 331 328 326 325 324 323 323 323 322 320 317 316 315 313 313 311 315 316 314 314 314 315 314 313 314 315 315
Wind_Speed
14 17 16 19 16 16 17 16 15 14 15 14 14 15 15 15 15 15 14 13 13 13 13 12 12 12 12 11 12 11 11 11 11 10 11 10 10 11 12 12 13 12 13 14 14 15 14 14 14 14 13 14 14 14 13 13 12 11 12 13 13 11 11 13 12 12 12 12 12 12 12 12 12 12 12 11 10 8 7 9 10 10 10 10 11
20 17 16 18 17 17 17 16 16 15 15 15 15 15 15 16 16 15 15 14 14 13 13 12 12 11 11 11 11 11 10 9 9 10 9 10 10 10 11 12 13 13 13 13 14 15 14 14 14 13 13 13 14 13 13 13 12 12 11 12 11 11 10 10 11 12 11 11 11 11 12 13 12 11 11 11 10 8 9 12 13 8 9 9 10
20 18 16 19 19 17 17 16 16 16 15 15 15 15 15 15 16 16 15 15 14 14 13 12 11 11 11 11 11 11 11 11 10 10 10 10 11 11 12 13 13 13 14 14 14 14 13 13 13 13 13 13 14 13 13 12 12 11 11 11 10 10 11 10 10 11 9 8 9 11 13 12 11 11 10 10 10 8 11 12 13 11 9 10 10
20 16 17 19 19 16 17 17 16 16 16 15 15 15 15 15 15 15 15 14 14 13 12 11 11 11 11 11 12 12 12 12 11 11 10 12 12 12 12 11 12 14 14 13 13 14 13 13 13 13 13 12 13 13 12 12 12 11 10 10 10 10 10 10 10 8 3 5 9 11 7 9 10 9 11 10 9 10 9 10 11 11 9 9 10
19 16 17 19 19 17 17 17 16 18 17 16 16 16 16 15 14 14 13 13 12 12 12 11 10 10 10 11 11 10 10 11 11 11 11 13 12 12 12 12 13 14 14 13 13 13 13 13 13 13 13 11 12 12 12 11 11 10 10 10 10 9 9 9 9 7 3 4 3 10 7 8 8 9 9 9 10 8 8 8 8 9 8 8 9
17 16 17 18 19 19 17 17 18 18 18 17 17 16 14 14 14 14 13 12 12 12 11 10 10 10 10 11 11 11 10 10 11 8 9 14 13 14 14 14 14 14 14 13 13 13 13 13 13 13 12 12 11 11 11 11 10 10 9 9 9 9 9 8 9 7 7 6 10 1 5 7 7 7 8 8 8 7 8 8 8 8 8 9 6
17 15 16 18 17 19 18 17 19 18 18 18 18 16 15 15 14 14 14 13 13 12 11 11 10 10 10 10 12 12 11 10 9 8 12 13 12 14 15 15 14 14 13 13 13 13 13 12 13 12 11 10 9 9 9 9 9 9 9 9 9 9 9 8 7 6 6 8 4 5 5 6 8 7 7 7 7 7 7 8 8 9 9 8 10
13 12 15 16 16 19 19 18 18 19 19 19 18 17 16 16 15 15 14 14 13 12 12 11 10 10 10 9 10 12 12 10 9 9 12 14 14 14 14 14 14 13 13 13 13 13 13 12 12 11 10 9 9 9 8 8 8 8 8 8 8 9 8 8 6 6 6 4 4 5 5 7 8 7 7 7 6 6 7 7 8 8 10 11 10
13 14 15 15 15 23 20 19 18 20 19 19 19 19 17 17 15 15 15 14 14 13 12 11 12 11 10 9 8 10 12 12 10 10 10 14 14 14 14 14 13 12 13 13 12 12 12 11 10 9 9 8 8 7 6 7 7 8 8 8 8 8 8 7 7 8 8 3 4 4 8 5 8 7 7 6 6 7 7 4 8 10 12 12 11
13 14 14 13 16 22 21 19 19 20 20 19 18 18 17 17 15 17 16 15 14 13 12 11 11 12 11 11 9 7 9 11 10 10 9 10 12 13 14 13 13 14 14 12 13 12 12 11 8 8 7 7 6 6 5 5 6 7 8 8 9 8 8 7 7 10 1 2 7 8 6 10 9 7 9 7 7 8 9 13 14 12 12 13 14
14 13 13 14 19 21 21 20 19 19 21 20 19 18 18 17 17 16 16 15 15 14 12 12 11 12 10 9 9 9 10 10 10 9 8 9 14 16 14 13 11 13 13 13 13 12 12 9 8 7 7 7 6 6 5 5 6 7 8 8 9 9 7 8 11 2 4 5 5 6 7 3 8 8 8 8 8 10 12 13 13 14 14 14 14
15 13 12 12 19 20 20 19 19 19 20 20 19 18 18 17 17 16 15 15 15 14 13 12 11 12 11 10 10 11 11 10 10 9 8 8 15 16 14 13 13 13 12 13 12 11 10 7 8 8 7 7 7 7 7 7 7 9 10 10 9 9 9 10 9 5 3 6 8 5 7 7 8 9 8 8 11 14 14 14 14 14 14 15 15
14 13 11 12 18 18 18 18 19 19 19 20 20 19 18 17 17 16 15 14 15 14 13 13 12 12 12 11 12 12 11 10 9 8 6 6 15 16 14 14 13 12 12 12 12 10 8 8 8 8 8 9 9 9 10 10 11 11 12 11 10 9 10 10 5 4 5 5 4 5 6 6 8 8 9 11 14 14 14 14 14 15 14 14 15
14 12 11 13 15 19 17 17 17 17 18 19 19 18 17 17 16 15 14 13 14 14 13 13 12 11 12 12 11 11 11 11 8 6 4 9 15 16 15 14 14 13 12 12 11 10 9 9 9 9 9 9 10 11 12 12 12 12 12 11 9 8 8 10 6 4 5 6 5 6 7 7 7 10 11 13 14 14 14 15 15 14 13 14 14
14 14 13 13 14 18 18 17 16 16 16 15 16 16 16 15 15 14 14 14 13 14 13 13 13 11 11 12 11 11 11 10 8 5 4 14 15 15 15 15 14 13 12 11 10 9 9 10 10 10 10 10 10 11 12 12 12 12 12 11 9 8 11 1 2 4 4 4 4 4 10 7 9 10 13 14 14 14 15 15 15 15 14 15 15
13 13 12 12 15 16 15 16 16 15 15 15 14 15 14 14 14 14 14 13 13 14 14 13 13 12 11 10 11 11 11 11 8 6 5 15 15 16 16 15 14 13 12 11 10 9 9 10 10 11 11 11 11 11 12 12 12 12 11 8 4 2 4 9 3 3 4 3 4 8 7 8 10 11 13 14 14 14 15 15 14 14 14 14 14
12 11 11 13 15 15 15 15 15 17 15 14 13 14 14 14 13 14 13 13 15 15 15 14 13 12 11 11 10 11 9 10 7 6 7 15 15 15 15 14 14 13 11 10 9 9 9 10 11 12 12 12 12 12 12 12 12 11 10 8 5 3 6 10 2 3 4 5 3 7 8 5 11 11 13 13 14 14 15 15 15 14 14 13 14
11 10 10 12 14 15 14 15 16 15 14 15 13 13 14 14 13 14 13 13 14 15 14 13 13 13 12 11 10 10 10 9 7 6 7 13 14 14 14 14 13 12 11 10 9 9 9 10 11 11 12 12 13 13 12 12 12 11 9 7 4 2 3 10 3 5 5 4 8 8 7 9 11 12 12 13 14 16 15 14 14 14 13 13 13
12 11 11 13 15 15 15 14 15 15 15 13 13 14 15 15 14 14 13 14 14 15 14 14 14 13 12 11 11 11 11 10 7 5 6 11 14 14 13 13 13 12 11 10 9 9 9 10 11 11 13 13 13 12 12 12 11 10 10 7 4 1 4 8 4 5 7 9 5 7 7 10 10 12 14 14 16 15 14 14 14 13 13 13 14
12 13 12 12 13 14 14 13 14 15 15 13 14 15 16 17 15 15 15 15 15 15 14 14 14 13 13 12 11 10 11 11 8 7 7 11 14 12 13 13 12 11 11 11 9 8 9 10 11 11 13 13 14 14 12 11 10 10 9 7 4 6 5 2 3 9 4 7 6 6 10 10 11 13 14 15 15 14 14 14 13 13 14 14 14
9 13 12 11 13 14 15 12 14 15 14 14 12 14 15 17 16 16 16 16 15 15 15 15 15 13 12 12 11 9 10 10 8 10 9 11 11 13 13 13 12 11 11 11 10 8 8 9 10 12 13 14 14 14 12 11 10 9 7 5 7 5 3 2 3 7 5 4 5 6 10 11 12 14 15 14 14 14 13 13 13 13 14 14 14
11 11 12 13 12 13 14 14 13 15 14 12 11 11 13 15 15 15 14 15 15 15 13 12 13 10 12 11 9 8 8 8 10 10 10 11 11 13 13 13 12 11 10 11 10 9 7 8 9 11 14 15 15 9 10 10 9 6 4 4 7 3 3 2 2 4 8 5 7 9 12 11 14 15 15 14 13 13 13 14 13 14 14 14 14
11 11 11 14 12 12 13 13 14 15 15 13 11 11 14 12 14 14 12 14 14 13 12 12 11 10 10 9 8 8 8 9 9 10 9 12 12 13 13 13 12 11 11 11 11 10 8 7 8 9 12 15 10 7 7 7 6 6 7 5 2 2 4 3 3 4 6 7 7 12 12 12 14 14 14 14 13 13 13 13 14 13 13 13 14
11 11 11 10 12 12 15 13 14 15 13 11 11 11 12 12 11 12 11 12 12 12 12 11 10 9 9 8 7 8 8 8 9 12 10 9 11 12 13 13 12 11 11 10 11 10 9 6 7 10 9 9 5 6 7 6 6 5 3 2 3 4 3 3 3 4 6 7 8 13 13 13 14 14 14 13 14 13 13 13 13 12 12 13 14
10 10 11 13 15 14 15 15 15 15 15 11 11 11 11 12 11 12 11 11 12 11 10 10 9 9 9 7 8 8 8 8 9 9 9 9 10 11 10 10 10 10 10 9 8 8 9 8 7 8 7 6 6 4 5 5 5 4 3 3 3 3 4 3 3 4 6 7 10 13 13 13 14 14 14 14 13 13 13 13 12 13 13 13 14
11 11 13 14 16 15 16 14 15 15 14 11 11 11 12 11 11 12 11 10 11 10 10 9 8 9 8 8 8 8 8 8 9 9 9 9 10 10 10 9 10 10 10 9 8 8 8 8 8 7 5 5 5 5 5 5 5 5 4 3 3 3 3 4 5 4 5 6 8 12 11 12 12 13 13 13 13 13 13 12 12 12 13 13 13
12 11 12 12 15 15 16 16 15 15 16 13 10 10 11 10 11 11 11 11 10 10 10 9 9 9 9 8 8 8 8 8 9 9 8 8 9 9 10 9 9 9 10 8 8 8 7 7 6 6 5 5 7 6 6 5 4 5 4 4 4 4 4 5 5 5 6 6 9 11 11 12 11 13 13 13 13 12 12 11 12 12 13 12 12
13 12 11 12 14 16 16 16 15 15 15 14 12 11 10 11 11 11 11 10 10 10 9 9 8 8 9 8 8 8 8 8 9 9 8 8 8 8 8 8 8 8 9 8 8 8 7 7 6 6 6 6 6 6 5 6 5 4 4 4 5 4 4 5 5 6 6 6 7 10 12 12 11 11 11 12 12 12 12 11 11 12 12 12 11
14 13 11 12 16 15 16 16 16 16 14 14 13 11 11 11 10 11 11 10 10 9 9 9 8 8 8 8 8 8 8 8 8 8 8 8 8 8 9 9 9 7 8 8 8 7 7 6 6 7 6 6 6 6 6 5 4 4 4 5 5 5 5 5 5 5 6 6 6 9 11 12 11 10 11 11 10 11 11 11 11 11 11 10 10
14 13 13 12 15 18 18 18 17 16 14 14 11 11 11 12 11 11 11 11 10 9 10 8 9 8 8 9 9 8 8 8 8 8 8 8 8 8 8 8 8 7 8 8 7 7 7 7 7 7 7 7 7 6 6 5 5 4 5 6 6 5 5 5 5 5 6 6 7 8 11 10 9 9 10 11 11 10 10 10 10 9 8 8 8
14 15 14 14 14 16 17 18 17 15 14 14 12 12 12 12 12 12 11 11 11 10 10 9 9 7 8 9 9 9 8 8 8 8 7 8 8 8 8 8 8 8 8 8 7 7 7 7 7 7 7 7 6 6 6 5 5 6 6 7 6 5 5 4 4 5 5 6 6 7 9 10 9 9 9 9 9 10 9 9 8 7 8 8 7
16 15 13 13 15 17 16 17 16 15 12 14 13 13 13 12 12 11 11 11 11 10 10 10 9 7 8 9 9 8 8 8 8 8 8 8 8 8 8 8 8 8 7 7 8 7 7 7 7 7 6 6 6 6 5 5 5 6 6 7 6 5 5 4 4 4 4 6 6 7 7 8 9 9 10 9 9 9 8 8 6 6 7 7 7
11 14 14 14 17 17 15 15 15 16 15 14 13 12 12 12 12 11 11 11 11 10 9 10 9 8 8 10 9 9 8 8 8 8 8 7 7 7 7 8 7 7 7 8 9 7 7 6 6 6 6 6 6 6 5 5 6 6 6 7 6 6 5 4 5 4 4 4 5 6 7 7 9 9 9 9 8 7 6 5 6 6 7 7 6
11 12 15 15 14 13 12 13 14 16 15 13 12 12 12 12 12 11 10 11 10 10 10 9 9 8 8 10 10 10 8 8 9 9 8 7 7 7 7 7 7 8 7 8 7 7 7 7 8 8 7 7 7 6 6 6 6 6 6 6 4 5 4 4 4 4 4 4 4 5 5 7 7 7 7 8 7 8 7 6 5 5 4 5 5
10 14 18 17 16 13 12 11 13 15 15 15 13 11 11 12 11 11 11 11 11 10 9 9 9 8 9 10 11 10 10 10 10 9 9 8 8 8 8 7 7 8 8 8 8 7 7 8 8 8 8 7 7 7 7 7 7 7 6 5 6 5 4 4 4 4 4 4 4 4 3 4 5 6 7 7 7 7 5 5 5 5 5 4 5
11 12 14 16 17 14 14 13 15 15 16 16 15 13 12 12 11 11 10 11 10 10 10 10 9 8 9 10 12 11 11 11 10 10 9 9 9 8 9 8 9 8 7 8 8 8 7 8 8 7 8 7 7 7 6 7 7 7 6 6 5 4 5 4 4 4 4 4 4 4 4 3 4 4 3 5 5 7 6 6 6 6 6 6 5
10 10 14 15 15 15 14 15 16 17 16 16 16 15 12 12 11 11 11 12 11 10 10 10 9 8 9 10 11 11 11 11 11 10 9 9 8 8 8 8 8 7 7 7 7 7 7 7 7 7 7 7 8 8 7 7 7 7 6 6 5 4 4 4 3 3 3 4 4 4 4 4 4 5 3 4 5 6 7 6 6 5 5 5 4
13 13 13 13 13 14 14 14 14 16 14 15 15 14 13 12 11 11 11 11 11 10 9 10 9 8 9 9 12 12 11 12 11 10 8 8 8 7 7 8 8 7 7 7 7 7 7 7 7 7 7 7 6 8 8 8 7 7 6 6 5 4 4 4 4 3 4 4 4 4 4 4 5 4 4 4 5 6 7 6 6 6 5 4 2
13 14 14 13 14 14 13 14 12 14 15 14 13 13 13 13 11 11 11 12 11 10 9 10 9 9 9 10 11 11 12 12 11 10 9 9 8 7 7 8 8 7 7 9 8 8 8 8 8 7 6 6 6 7 7 8 7 7 7 6 5 4 3 3 3 3 4 4 4 4 4 4 4 4 4 4 4 5 5 5 6 6 7 5 2
14 14 15 15 15 15 14 12 13 14 14 13 12 12 12 13 13 12 12 12 11 11 10 10 9 10 10 11 11 10 11 11 11 10 9 9 8 6 6 7 7 8 8 9 8 8 9 9 9 8 8 6 6 7 8 8 7 7 7 5 4 4 4 3 3 4 4 5 5 4 4 4 5 4 4 4 3 4 3 2 1 1 4 7 4
15 15 15 15 16 16 16 17 15 15 14 14 13 13 13 13 13 14 13 12 12 11 11 10 10 10 11 11 11 10 11 11 11 10 10 9 7 6 7 7 7 8 8 8 9 9 8 8 7 7 9 8 7 8 8 8 9 7 5 4 4 3 3 3 4 4 4 5 5 5 4 4 5 5 5 4 4 4 3 3 2 2 2 5 7
15 15 16 15 16 16 17 15 14 16 15 15 14 11 11 12 12 12 12 12 12 12 11 11 11 11 11 11 11 11 12 11 10 10 10 9 8 6 7 7 7 7 8 8 9 8 9 8 7 7 8 8 7 9 9 9 8 8 8 6 5 4 4 4 5 4 5 5 5 5 5 5 5 5 5 5 4 4 4 3 3 2 1 1 1
14 15 16 15 13 12 14 15 15 16 16 14 14 15 13 13 13 12 12 11 11 11 11 11 11 10 10 11 11 11 12 10 10 11 9 9 8 6 7 6 7 7 8 8 9 9 9 10 10 8 8 8 7 7 10 10 7 7 7 6 6 6 6 5 5 6 6 5 5 5 5 5 6 5 5 5 5 5 4 3 3 2 1 1 1
12 14 16 17 15 14 14 15 16 17 15 14 14 14 14 14 13 12 12 11 11 11 11 11 11 12 12 11 11 11 12 11 11 11 9 9 8 7 6 7 7 7 8 9 9 10 9 9 10 10 9 8 8 9 9 10 6 7 7 7 5 6 6 9 8 7 7 7 6 6 6 6 7 6 4 5 5 5 4 4 4 3 2 1 1
14 15 16 15 14 18 19 19 17 17 16 15 16 15 14 14 13 12 12 11 10 10 11 11 12 12 12 12 12 13 13 11 11 11 10 9 8 7 7 7 7 8 8 8 9 9 10 10 10 10 10 9 8 7 9 10 7 8 5 5 3 5 6 6 7 5 7 7 8 8 7 7 7 7 6 6 5 5 4 4 4 4 3 2 2
14 15 15 16 17 16 17 16 14 15 15 17 18 16 15 15 15 14 15 14 13 13 14 14 13 13 14 11 13 13 13 11 11 11 10 9 8 8 7 7 8 7 8 7 7 8 9 11 11 10 11 10 7 8 8 8 7 7 6 4 6 4 2 7 5 4 6 6 6 8 8 9 8 7 7 7 7 6 6 5 5 4 4 4 2
13 13 14 15 18 15 14 18 17 14 14 16 19 16 17 15 17 16 15 15 14 13 12 12 12 12 12 13 12 12 13 12 11 11 10 9 8 8 8 8 8 8 8 7 9 9 9 11 10 10 9 9 8 8 9 9 7 7 6 4 4 3 1 4 5 2 5 7 6 7 8 9 9 9 8 7 7 6 5 5 6 5 5 4 3
13 14 15 16 18 18 18 19 16 14 14 17 19 18 16 16 17 16 14 14 14 13 13 12 13 12 12 13 11 12 12 12 11 11 10 10 9 8 8 8 8 8 8 8 8 8 9 9 9 10 9 8 9 8 8 8 9 8 8 7 4 3 3 5 7 5 6 4 7 7 7 8 8 8 8 7 8 7 6 5 5 5 5 5 4
13 15 15 16 17 17 16 17 18 17 16 19 19 20 16 16 16 15 14 13 13 12 12 12 12 12 13 12 12 12 12 12 12 11 10 10 9 9 9 8 9 8 8 7 8 9 11 10 9 9 8 8 8 8 7 8 8 8 8 7 5 4 5 6 6 6 6 6 5 9 8 8 7 8 7 7 7 7 7 7 6 5 5 4 4
14 15 16 16 17 19 19 20 20 17 16 20 20 21 19 15 16 16 17 15 13 13 13 13 13 13 14 14 13 12 11 11 11 11 10 11 10 9 9 9 9 8 8 8 8 10 10 10 9 9 8 8 6 8 8 7 7 8 7 6 6 6 6 6 6 7 7 7 7 5 9 11 10 9 9 8 8 7 7 7 7 6 5 4 4
13 15 15 16 17 18 20 20 21 17 17 18 21 22 18 16 16 17 18 17 17 15 13 14 14 14 14 14 13 12 11 11 10 10 11 11 10 10 9 9 8 8 8 9 9 10 8 8 8 9 8 9 7 8 8 8 8 7 7 7 7 7 8 8 6 6 7 6 6 6 6 9 9 9 10 10 8 9 8 7 7 6 5 5 3
Wind_Direction
166 156 151 151 164 162 162 162 157 158 154 153 149 147 141 139 138 136 135 134 134 135 135 131 136 137 139 138 141 140 140 142 144 139 134 127 129 128 125 121 117 113 117 114 107 105 102 103 102 102 105 104 104 105 105 101 95 96 93 88 87 85 82 84 83 85 85 86 92 90 86 84 81 80 80 77 74 62 36 16 7 57 50 63 49
161 155 151 156 162 160 162 162 158 158 156 154 152 149 143 139 136 136 135 134 132 132 134 134 136 138 140 142 142 143 142 136 126 132 132 134 135 134 132 128 121 118 114 113 110 105 106 105 105 103 104 105 104 104 104 103 101 98 95 95 91 88 88 91 93 95 96 99 97 95 88 86 82 77 74 71 68 54 43 30 24 48 66 63 57
151 153 152 155 158 160 161 160 157 158 156 155 154 150 144 139 137 135 133 132 130 128 129 130 133 135 138 141 143 144 140 134 136 137 140 141 143 134 129 130 128 122 118 117 115 112 110 109 111 109 108 108 107 107 107 106 105 101 100 97 98 97 91 90 99 101 107 107 106 109 101 87 83 88 83 75 66 57 44 38 29 47 60 41 45
149 152 152 151 159 161 158 159 157 159 157 157 155 152 144 140 137 133 131 129 127 120 119 121 127 134 137 140 144 145 145 143 143 144 147 144 130 131 132 128 131 130 125 121 119 113 112 115 114 113 111 112 113 112 112 111 112 110 106 107 105 106 109 104 97 85 78 137 155 148 128 108 102 81 76 73 69 63 58 55 57 51 55 52 47
149 150 150 155 162 162 159 158 156 161 157 158 157 153 146 140 136 131 127 125 121 119 117 116 120 128 136 139 139 142 145 147 148 148 150 128 129 129 129 128 127 128 126 124 121 116 120 120 117 114 115 116 115 117 116 117 115 118 115 115 113 111 104 101 100 112 117 259 233 245 90 99 95 88 86 80 75 69 69 70 60 50 50 45 47
150 152 151 159 164 163 160 159 157 160 160 158 159 153 145 140 136 132 128 126 121 120 120 123 124 132 140 143 143 145 148 151 153 146 121 119 127 129 129 128 133 133 126 128 124 126 126 122 118 117 120 118 117 118 119 121 120 122 124 121 122 115 113 113 119 139 190 210 235 133 79 83 92 102 80 78 78 71 67 63 55 50 41 26 50
151 149 154 161 162 161 161 159 159 161 162 160 159 154 149 144 140 136 131 127 126 129 131 130 133 135 143 151 149 147 150 157 158 122 117 119 126 131 131 134 133 128 130 132 134 131 128 127 122 119 118 120 117 119 123 125 131 129 134 134 126 124 120 120 140 171 201 230 80 74 76 80 83 91 71 72 70 66 66 55 44 43 43 39 26
154 153 154 159 164 153 159 160 162 162 162 161 160 156 152 148 144 139 136 136 136 135 136 134 135 142 143 147 151 146 150 156 152 134 120 127 129 134 132 130 132 135 134 133 132 131 131 129 122 121 119 118 119 120 125 132 135 143 145 145 138 132 127 132 139 211 234 257 60 53 63 64 76 88 83 68 65 63 62 55 49 57 56 47 40
156 156 155 155 156 152 156 161 162 163 163 163 160 157 155 151 147 146 140 140 139 140 138 138 140 144 143 145 151 153 152 154 149 145 137 137 139 139 130 126 129 135 124 124 132 135 131 127 120 116 118 114 115 118 124 134 140 147 152 153 153 144 143 142 183 213 222 73 62 67 43 33 82 86 88 73 70 65 44 80 126 79 65 59 55
158 156 156 156 157 156 157 160 162 163 165 163 161 159 156 152 151 149 143 144 143 143 141 138 140 141 147 149 158 166 155 141 146 152 150 141 153 131 121 125 132 127 124 129 133 134 131 123 116 113 105 105 103 107 115 128 142 147 157 157 157 154 154 165 198 225 310 114 73 50 51 339 71 71 78 71 64 70 67 58 56 59 64 68 66
158 158 160 163 161 156 158 160 161 163 166 164 163 161 157 154 155 150 148 149 148 146 144 143 143 138 141 152 158 169 160 151 155 151 143 130 121 120 125 129 122 123 131 132 132 132 129 118 110 102 98 95 99 101 108 122 141 150 151 155 154 157 155 190 208 169 89 78 86 101 91 273 69 69 83 77 86 80 75 72 74 75 73 71 70
160 161 164 166 146 157 157 159 162 163 165 165 163 162 158 157 155 152 154 155 153 150 148 146 146 141 142 151 164 170 162 162 155 146 138 137 126 123 126 126 125 130 132 132 131 127 122 113 103 100 98 100 101 101 103 115 127 135 138 138 143 154 175 200 224 78 91 63 58 44 53 57 73 80 80 93 89 86 82 80 79 77 76 73 70
159 163 162 157 152 157 157 158 162 164 165 164 164 163 160 159 156 157 161 159 154 153 150 147 146 144 144 147 161 165 163 163 163 132 120 140 133 126 129 129 131 123 125 126 120 121 121 108 102 99 101 102 100 100 101 108 111 116 120 126 137 153 191 201 232 90 73 77 89 78 75 86 76 85 93 103 93 87 83 80 76 75 74 73 71
158 162 158 157 160 156 155 159 162 164 166 164 165 163 162 160 159 160 161 160 154 154 151 148 145 145 145 148 157 166 167 163 161 136 132 132 137 129 132 129 122 123 123 123 126 125 113 105 100 97 99 101 100 101 104 107 108 112 113 118 124 153 201 222 255 85 87 85 52 59 66 66 79 97 110 99 95 92 88 82 77 74 71 70 71
160 161 164 157 154 162 154 159 163 163 163 164 164 162 162 162 160 153 157 161 154 153 154 149 145 146 148 151 156 166 168 165 167 154 139 140 135 131 128 125 126 125 126 125 125 117 108 102 101 100 98 98 97 98 103 105 110 112 117 121 136 183 221 201 155 89 91 86 87 82 69 75 97 112 104 99 95 90 85 83 78 74 72 70 68
157 156 158 154 155 162 162 160 163 162 161 164 163 162 160 161 158 150 159 158 150 153 153 150 147 148 148 150 157 167 169 171 171 177 156 146 133 129 129 128 124 124 125 125 122 112 104 101 101 101 101 98 96 96 97 100 100 101 99 108 95 348 293 305 78 95 92 94 84 66 67 89 108 108 104 103 100 94 87 84 80 75 71 67 67
150 153 156 154 153 163 169 168 167 163 161 161 162 161 159 159 155 150 158 156 151 155 152 150 148 149 148 148 159 164 171 173 182 195 172 145 137 134 136 131 125 125 126 125 118 112 104 100 101 102 102 99 99 99 99 99 98 96 94 95 75 34 332 307 84 74 75 66 46 88 109 107 109 103 104 103 99 93 88 84 81 78 75 72 71
146 150 156 157 158 165 172 174 168 170 165 164 162 162 159 159 153 151 157 157 155 155 153 150 148 149 146 149 159 166 170 177 189 188 146 142 139 141 137 133 129 127 128 125 117 114 107 101 101 102 102 100 99 99 98 97 96 98 96 91 91 44 300 290 85 70 83 70 49 47 63 99 108 108 104 100 95 88 85 82 80 79 78 76 76
149 156 166 165 166 171 173 174 174 175 169 176 172 164 162 159 155 156 158 158 156 156 154 152 148 148 144 148 157 164 171 172 178 164 148 140 141 140 138 137 134 130 128 123 120 116 109 101 102 106 109 105 102 99 101 101 101 102 102 103 106 183 265 260 89 83 52 49 33 67 96 101 103 102 99 94 87 86 85 83 82 83 82 80 80
156 159 171 175 172 174 174 174 176 178 175 175 176 170 169 165 162 159 161 160 161 157 156 155 147 150 146 148 157 162 166 170 167 171 162 153 147 153 139 138 139 131 129 124 122 118 111 104 100 108 112 110 110 108 105 106 106 103 110 123 153 215 227 56 68 65 79 55 45 91 101 105 103 101 96 89 89 89 89 87 88 87 85 81 79
160 164 172 179 179 176 173 173 177 178 175 173 175 173 168 168 168 164 166 166 165 160 158 155 154 151 151 150 158 170 166 167 172 175 163 171 159 147 145 143 145 138 129 126 123 122 110 105 105 115 123 119 114 110 105 105 105 108 115 160 208 225 53 80 91 97 40 80 81 88 108 103 101 99 91 91 91 92 93 91 90 89 85 81 78
165 165 177 179 181 179 175 178 175 177 175 174 173 174 163 177 175 167 176 170 167 164 165 167 167 155 153 153 169 162 171 170 179 171 179 165 159 156 150 151 149 142 132 131 126 126 122 109 112 124 130 131 139 134 123 111 111 117 154 220 238 73 87 72 42 93 135 89 97 113 110 108 103 96 96 94 93 94 93 92 89 86 84 82 79
168 169 175 182 180 176 176 181 175 178 174 175 173 172 167 179 178 171 176 172 171 175 173 175 170 165 167 166 172 168 174 161 183 174 180 169 156 163 156 156 154 147 141 135 133 130 128 117 114 136 144 158 175 142 146 146 135 157 207 218 83 89 85 82 85 77 62 91 113 108 108 110 104 102 100 100 99 96 95 92 89 88 87 85 81
169 172 172 181 180 176 178 180 175 176 175 177 175 173 170 180 179 175 178 177 173 183 176 182 176 172 166 167 174 172 174 167 166 176 169 168 149 170 160 155 157 157 151 147 136 134 131 129 129 146 168 185 167 160 151 150 148 169 151 129 122 111 123 123 82 74 83 92 100 106 106 107 102 100 98 98 98 98 94 92 91 90 85 80 77
172 169 174 180 184 178 175 179 177 176 177 173 177 174 170 180 179 179 180 180 176 181 179 182 179 171 171 167 173 174 175 167 168 174 178 172 172 171 166 174 174 169 178 169 167 150 177 156 153 186 184 182 165 152 143 135 149 150 135 130 139 126 113 95 96 95 85 79 88 104 104 100 98 99 100 98 99 97 95 92 91 87 82 79 76
176 182 180 176 183 180 177 177 177 173 179 172 179 171 167 184 180 181 180 182 181 176 178 179 176 174 176 171 168 174 181 166 169 173 178 176 167 179 179 179 180 180 190 176 179 172 184 170 176 183 178 173 153 155 151 149 153 154 150 148 136 136 124 104 86 79 85 95 98 96 102 102 102 101 101 100 99 98 97 97 96 92 87 84 80
187 193 178 171 180 181 177 177 179 174 176 176 179 177 180 182 181 181 183 183 180 176 179 176 176 173 178 174 172 173 181 172 170 174 174 176 177 179 183 180 182 184 187 185 184 179 188 178 178 177 173 167 164 155 150 151 158 152 158 154 139 125 124 112 110 100 93 93 106 105 101 101 102 103 104 103 102 103 102 100 97 93 89 86 82
190 192 185 173 178 182 177 178 180 178 176 175 179 179 186 181 184 176 190 178 179 181 177 178 161 181 181 176 181 175 178 175 174 174 171 177 178 177 185 179 188 190 180 197 182 185 186 180 177 171 176 167 157 154 151 156 161 168 157 137 136 122 106 94 90 91 100 104 113 111 106 106 108 109 109 110 110 108 107 103 99 93 87 79 73
189 187 182 180 180 180 179 182 180 178 176 177 177 185 184 186 181 182 190 170 186 182 179 172 176 180 182 179 182 179 176 176 174 171 169 176 172 176 178 183 189 192 177 198 183 184 184 181 175 177 171 170 160 164 161 156 168 170 148 139 126 115 111 112 114 111 101 102 100 109 112 113 118 116 114 108 109 109 107 107 102 96 94 96 94
189 184 181 185 184 180 181 183 182 180 176 177 178 184 182 187 183 184 187 177 189 183 172 178 187 179 176 182 180 181 177 175 173 172 172 169 172 174 177 179 184 190 184 189 185 183 184 185 180 180 172 174 175 158 165 163 171 154 144 129 131 127 120 122 121 112 109 102 105 111 109 111 115 121 121 120 114 114 113 112 109 106 101 92 83
185 187 187 189 187 181 180 183 183 182 177 179 180 184 183 189 184 185 184 186 187 176 177 181 186 185 174 177 179 179 178 173 173 172 169 171 173 175 180 176 183 181 187 180 183 188 186 183 187 181 180 177 172 158 182 170 158 148 141 140 134 128 121 107 102 107 113 114 121 120 116 116 116 115 111 109 112 114 115 115 111 101 90 86 90
188 184 186 187 183 183 181 181 179 177 180 182 181 185 187 188 188 189 186 186 183 182 183 190 186 186 171 175 177 176 180 170 173 173 171 171 175 178 177 175 177 173 183 176 181 187 185 185 182 181 182 170 168 169 172 168 152 145 148 132 137 133 127 119 113 104 100 114 123 126 127 122 118 117 117 118 123 122 122 118 118 113 103 97 91
184 178 182 187 185 180 181 184 179 171 181 188 184 188 188 188 188 190 189 184 182 181 185 193 186 181 171 177 175 173 177 170 171 176 169 171 173 176 174 172 172 173 174 177 177 184 186 174 175 175 170 171 169 165 164 162 152 145 137 146 144 131 118 123 113 111 121 125 127 133 134 136 127 124 126 134 137 136 134 128 104 95 107 107 99
174 175 181 185 181 185 181 183 186 178 177 185 189 190 190 190 189 190 187 183 182 184 187 196 184 181 173 178 175 172 178 173 173 174 173 168 171 178 173 174 169 166 169 177 177 190 181 177 173 174 173 173 168 160 162 159 153 142 146 146 135 117 137 124 117 114 119 124 124 134 140 140 147 140 129 112 93 81 75 75 82 93 95 90 89
178 176 180 179 183 178 181 183 184 182 179 182 183 197 190 194 191 189 189 188 186 188 185 192 188 187 175 177 180 175 185 180 182 180 176 172 174 178 179 177 170 171 173 180 183 183 181 181 175 176 172 172 167 163 168 157 155 150 138 136 136 139 118 112 126 133 119 114 142 128 137 141 137 141 151 143 119 103 102 100 94 86 90 79 54
186 173 170 173 176 169 181 190 185 184 184 183 183 189 191 198 194 187 191 189 188 189 186 192 190 188 181 176 186 181 189 185 188 181 182 184 180 179 183 176 173 180 178 179 188 182 179 185 179 173 173 169 165 162 162 154 153 139 145 141 141 137 133 135 131 140 127 143 130 142 142 136 154 146 157 145 142 124 129 117 98 85 64 55 48
207 182 175 172 170 170 175 191 189 189 184 187 185 185 187 196 195 188 193 189 192 191 185 193 190 191 186 181 183 187 193 189 191 187 188 191 190 184 180 174 178 177 179 181 192 186 178 181 176 177 178 172 175 161 155 154 145 144 147 148 143 144 140 135 140 105 120 118 129 142 142 131 117 121 172 134 139 140 135 122 109 93 70 47 37
203 199 191 179 175 170 177 192 191 191 184 186 189 186 186 190 195 190 192 192 195 194 189 195 190 193 188 187 179 188 194 193 195 190 194 196 191 186 169 171 179 177 179 187 190 185 181 177 174 175 184 196 178 162 160 154 149 147 146 136 141 147 128 133 117 143 136 136 140 143 135 136 151 160 145 158 142 143 144 136 144 131 102 64 34
203 198 196 189 187 186 181 187 190 190 187 185 186 187 186 189 192 191 190 195 195 192 193 197 194 193 189 188 179 187 193 194 194 196 197 198 190 184 174 172 180 179 181 195 189 185 181 181 175 171 180 197 176 164 160 145 149 152 151 133 134 138 142 126 150 144 127 131 132 135 149 152 145 161 147 155 157 152 157 168 178 172 126 123 99
203 200 198 191 191 185 183 179 190 192 188 185 184 187 186 186 189 193 193 194 191 190 193 199 197 196 186 185 182 186 192 195 196 197 201 200 192 182 177 173 183 185 187 198 188 182 179 175 176 163 169 174 166 161 150 142 140 147 145 147 137 141 129 148 149 137 141 144 151 165 158 151 159 152 164 157 157 141 162 172 239 167 133 136 162
199 202 199 191 189 186 185 186 189 188 190 187 187 189 188 186 190 194 192 190 191 188 192 197 199 198 184 184 183 185 191 194 198 198 202 201 193 183 176 184 184 189 193 197 190 179 174 173 167 167 167 162 161 167 150 147 136 118 120 134 130 143 142 169 164 161 158 163 167 174 163 167 165 163 170 177 156 175 177 193 196 182 178 149 170
194 195 194 195 196 192 192 187 183 189 193 190 186 186 188 191 187 191 193 189 189 188 190 194 199 196 186 184 183 187 192 193 198 200 202 202 195 182 182 184 186 190 196 193 187 168 168 166 163 170 178 170 169 177 159 165 178 171 171 176 169 174 176 190 188 178 180 181 176 173 176 181 176 183 169 182 177 188 193 198 193 157 172 209 147
185 183 193 190 196 200 195 189 188 190 194 191 186 188 188 191 189 188 193 187 194 192 192 194 195 195 189 185 184 187 191 194 199 198 200 202 198 187 182 182 188 186 194 188 176 167 171 167 166 170 181 189 186 181 173 198 190 175 175 170 179 184 173 203 206 194 197 187 185 180 186 185 190 201 184 194 186 192 194 188 161 176 168 251 211
192 193 200 193 191 198 197 191 192 193 193 191 193 186 185 186 186 180 189 192 186 189 195 190 193 198 193 187 186 190 192 198 197 198 197 199 195 189 183 184 188 191 194 187 180 181 172 173 182 188 187 186 191 175 183 205 209 177 189 214 171 213 204 198 187 190 194 193 196 190 192 192 195 199 205 208 194 195 182 180 169 177 195 208 285
195 194 196 196 195 194 199 197 196 195 193 187 191 185 181 183 182 178 181 188 184 187 195 193 195 196 195 187 190 192 195 198 200 200 197 194 191 191 189 187 189 191 197 187 184 183 178 180 184 191 193 200 188 172 185 202 234 199 233 198 153 223 256 105 167 167 188 201 201 203 186 200 201 194 210 207 198 191 186 177 194 172 195 200 208
201 197 190 197 202 200 201 196 197 197 192 186 189 187 182 182 179 179 183 186 188 187 195 192 190 195 197 184 191 193 197 199 199 198 196 193 188 190 190 191 189 190 192 188 183 180 190 196 195 201 199 203 198 183 189 195 213 220 270 271 330 336 318 133 191 184 176 214 210 207 196 197 202 199 209 207 199 195 183 197 186 193 194 208 195
207 196 194 194 201 201 199 199 199 198 189 186 189 189 184 186 186 186 186 188 189 192 194 194 191 192 195 187 190 191 197 198 201 198 194 193 187 191 188 196 191 193 195 194 191 187 194 200 198 207 206 202 197 201 197 190 193 224 224 241 267 266 290 168 235 145 190 177 217 200 207 199 200 206 205 211 200 195 189 209 182 203 182 197 207
205 198 199 198 202 201 196 197 196 194 191 190 191 191 186 185 186 189 192 194 192 189 190 190 192 192 190 187 187 190 196 199 197 197 194 193 189 188 189 195 192 197 197 196 189 191 204 206 208 208 211 203 202 214 206 194 194 203 208 215 210 234 245 234 270 264 285 194 188 203 202 204 202 209 216 213 205 194 191 215 199 193 198 202 197
205 199 190 188 197 199 195 196 195 195 194 193 192 192 190 183 185 189 192 195 190 185 184 189 189 190 190 185 189 189 195 200 197 196 193 193 190 188 188 194 196 196 201 199 194 200 206 204 198 206 210 207 215 222 221 214 208 221 186 209 211 213 226 238 238 245 251 264 208 179 191 187 209 207 215 221 215 197 199 203 224 208 190 189 217
206 200 192 188 198 202 195 194 196 198 195 195 195 192 190 183 187 191 191 191 188 188 186 185 190 186 190 186 191 191 191 195 198 198 194 193 190 185 188 195 196 196 202 202 202 203 202 203 197 199 199 208 208 220 225 225 220 229 200 191 193 209 226 226 222 231 244 250 280 191 186 182 197 204 201 207 217 214 202 198 212 212 204 199 207
204 197 192 195 200 197 195 192 198 201 196 196 195 194 191 188 190 189 190 191 191 186 182 186 187 187 190 186 189 191 191 190 197 197 198 196 185 184 188 190 193 196 201 203 206 204 193 203 200 197 200 200 203 214 222 227 232 226 202 201 205 211 230 233 229 222 236 236 228 252 202 196 206 198 195 200 210 212 209 192 209 218 200 209 206